TimeMDT,TemperatureF,Dew PointF,Humidity,Sea Level PressureIn,VisibilityMPH,Wind Direction,Wind SpeedMPH,Gust SpeedMPH,PrecipitationIn,Events,Conditions,WindDirDegrees,DateUTC
12:51 AM,72.0,32.0,23,29.73,10.0,SW,12.7,23.0,N/A,,Partly Cloudy,230,2013-10-09 06:51:00
1:51 AM,71.1,30.9,23,29.73,10.0,WSW,13.8,-,N/A,,Clear,240,2013-10-09 07:51:00
2:51 AM,69.1,32.0,25,29.73,10.0,SW,9.2,-,N/A,,Clear,220,2013-10-09 08:51:00
3:51 AM,64.9,33.1,31,29.74,10.0,South,5.8,-,N/A,,Clear,190,2013-10-09 09:51:00
4:51 AM,66.9,32.0,27,29.73,10.0,SW,10.4,-,N/A,,Partly Cloudy,230,2013-10-09 10:51:00
5:51 AM,66.9,30.9,26,29.74,10.0,WSW,12.7,-,N/A,,Scattered Clouds,240,2013-10-09 11:51:00
6:51 AM,64.0,32.0,30,29.78,10.0,SW,9.2,-,N/A,,Scattered Clouds,220,2013-10-09 12:51:00
7:51 AM,64.0,34.0,33,29.80,10.0,Calm,Calm,-,N/A,,Mostly Cloudy,0,2013-10-09 13:51:00
8:51 AM,68.0,35.1,30,29.82,10.0,SE,5.8,-,N/A,,Mostly Cloudy,140,2013-10-09 14:51:00
9:51 AM,69.1,35.1,29,29.83,10.0,SSE,8.1,-,N/A,,Scattered Clouds,160,2013-10-09 15:51:00
10:51 AM,73.0,35.1,25,29.81,10.0,South,4.6,-,N/A,,Partly Cloudy,170,2013-10-09 16:51:00
11:51 AM,77.0,39.0,25,29.79,10.0,South,12.7,17.3,N/A,,Partly Cloudy,180,2013-10-09 17:51:00
12:51 PM,80.1,39.9,24,29.76,10.0,South,6.9,-,N/A,,Partly Cloudy,180,2013-10-09 18:51:00
1:51 PM,82.0,39.0,22,29.72,10.0,SSW,12.7,19.6,N/A,,Scattered Clouds,210,2013-10-09 19:51:00
2:51 PM,84.0,37.9,19,29.70,10.0,SSW,11.5,17.3,N/A,,Scattered Clouds,200,2013-10-09 20:51:00
3:51 PM,84.9,35.1,17,29.69,10.0,SW,12.7,19.6,N/A,,Scattered Clouds,220,2013-10-09 21:51:00
4:51 PM,84.0,35.1,17,29.68,10.0,SW,5.8,-,N/A,,Scattered Clouds,220,2013-10-09 22:51:00
5:51 PM,82.9,35.1,18,29.68,10.0,SSW,11.5,-,N/A,,Scattered Clouds,210,2013-10-09 23:51:00
6:51 PM,79.0,34.0,20,29.68,10.0,SSE,5.8,-,N/A,,Scattered Clouds,150,2013-10-10 00:51:00
7:51 PM,75.0,35.1,23,29.70,10.0,SE,5.8,-,N/A,,Scattered Clouds,140,2013-10-10 01:51:00
8:51 PM,73.0,36.0,26,29.70,10.0,SE,5.8,-,N/A,,Scattered Clouds,140,2013-10-10 02:51:00
9:51 PM,75.9,37.0,24,29.72,10.0,West,3.5,-,N/A,,Partly Cloudy,280,2013-10-10 03:51:00
10:51 PM,75.0,37.0,25,29.73,10.0,West,4.6,-,N/A,,Partly Cloudy,270,2013-10-10 04:51:00
11:51 PM,72.0,37.0,28,29.71,10.0,SW,5.8,-,N/A,,Scattered Clouds,230,2013-10-10 05:51:00